TimeCST,TemperatureF,Dew PointF,Humidity,Sea Level PressureIn,VisibilityMPH,Wind Direction,Wind SpeedMPH,Gust SpeedMPH,PrecipitationIn,Events,Conditions,WindDirDegrees,DateUTC
12:53 AM,48.0,41.0,77,30.12,10.0,East,3.5,-,N/A,,Overcast,90,2013-01-08 06:53:00
1:53 AM,48.9,39.9,71,30.10,10.0,NE,4.6,-,N/A,,Overcast,40,2013-01-08 07:53:00
2:11 AM,48.2,39.2,71,30.11,10.0,Calm,Calm,-,0.00,Rain,Light Rain,0,2013-01-08 08:11:00
2:53 AM,48.0,42.1,80,30.10,9.0,ENE,4.6,-,0.00,Rain,Light Rain,70,2013-01-08 08:53:00
3:19 AM,48.2,42.8,82,30.10,5.0,Calm,Calm,-,0.02,Rain,Light Rain,0,2013-01-08 09:19:00
3:53 AM,48.0,43.0,83,30.08,10.0,ENE,5.8,-,0.03,,Overcast,70,2013-01-08 09:53:00
4:53 AM,48.0,43.0,83,30.06,10.0,ENE,5.8,-,N/A,,Overcast,60,2013-01-08 10:53:00
5:09 AM,48.2,42.8,82,30.06,10.0,East,6.9,-,N/A,,Overcast,80,2013-01-08 11:09:00
5:53 AM,48.2,42.8,82,30.06,10.0,East,6.9,-,N/A,,Overcast,80,2013-01-08 11:53:00
6:53 AM,50.0,43.0,77,30.07,10.0,East,8.1,-,N/A,,Overcast,80,2013-01-08 12:53:00
7:45 AM,50.0,44.6,82,30.07,9.0,Variable,4.6,-,0.01,Rain,Light Rain,0,2013-01-08 13:45:00
7:53 AM,50.0,44.6,82,30.07,10.0,ENE,3.5,-,N/A,Rain,Light Rain,70,2013-01-08 13:53:00
8:01 AM,50.0,44.6,82,30.07,10.0,ENE,6.9,-,0.00,,Overcast,70,2013-01-08 14:01:00
8:27 AM,51.8,44.6,76,30.08,10.0,ENE,4.6,-,0.00,Rain,Light Rain,60,2013-01-08 14:27:00
8:53 AM,50.0,46.0,86,30.10,6.0,East,3.5,-,0.01,Rain,Light Rain,80,2013-01-08 14:53:00
9:05 AM,50.0,46.4,87,30.08,1.8,East,8.1,-,0.06,Rain,Heavy Rain,80,2013-01-08 15:05:00
9:13 AM,51.8,46.4,82,30.08,2.5,East,10.4,-,0.07,Rain,Rain,90,2013-01-08 15:13:00
9:16 AM,51.8,46.4,82,30.08,3.0,East,10.4,-,0.07,Rain,Rain,90,2013-01-08 15:16:00
9:53 AM,52.0,48.9,89,30.11,2.0,SSW,9.2,-,N/A,Rain,Heavy Rain,210,2013-01-08 15:53:00
9:58 AM,51.8,48.2,88,30.11,1.5,SSW,5.8,-,0.04,Rain,Heavy Rain,210,2013-01-08 15:58:00
10:45 AM,55.4,51.8,88,30.08,7.0,East,4.6,-,N/A,Rain,Light Rain,90,2013-01-08 16:45:00
10:53 AM,57.0,54.0,89,30.07,9.0,East,8.1,-,N/A,,Overcast,100,2013-01-08 16:53:00
11:53 AM,59.0,55.9,90,30.05,4.0,SE,9.2,-,N/A,Rain,Light Rain,130,2013-01-08 17:53:00
11:56 AM,59.0,55.4,88,30.04,2.5,East,10.4,-,0.01,Rain,Heavy Rain,100,2013-01-08 17:56:00
12:04 PM,60.8,57.2,88,30.04,6.0,East,11.5,-,0.01,Rain,Light Rain,100,2013-01-08 18:04:00
12:53 PM,60.1,57.0,90,29.98,10.0,ESE,13.8,-,N/A,,Overcast,110,2013-01-08 18:53:00
1:15 PM,60.8,57.2,88,29.97,2.5,SE,11.5,-,0.03,Rain,Rain,130,2013-01-08 19:15:00
1:33 PM,60.8,57.2,88,29.96,7.0,ESE,15.0,-,0.05,Rain,Light Rain,120,2013-01-08 19:33:00
1:53 PM,60.1,57.0,90,29.96,6.0,ESE,13.8,-,0.05,Rain,Light Rain,110,2013-01-08 19:53:00
2:12 PM,60.8,57.2,88,29.97,10.0,ESE,12.7,23.0,0.00,,Overcast,120,2013-01-08 20:12:00
2:53 PM,59.0,55.9,90,29.98,4.0,SE,5.8,-,0.03,Rain,Light Rain,140,2013-01-08 20:53:00
3:53 PM,59.0,55.9,90,29.98,7.0,ESE,6.9,-,0.02,Rain,Light Rain,110,2013-01-08 21:53:00
4:11 PM,59.0,55.4,88,29.99,2.0,East,3.5,-,0.07,Rain,Heavy Rain,80,2013-01-08 22:11:00
4:17 PM,59.0,55.4,88,29.99,1.0,Calm,Calm,-,0.15,Rain,Heavy Rain,0,2013-01-08 22:17:00
4:24 PM,59.0,55.4,88,29.99,3.0,ENE,4.6,-,0.15,Rain,Light Rain,70,2013-01-08 22:24:00
4:33 PM,59.0,55.4,88,29.98,7.0,East,8.1,-,0.15,Rain,Light Rain,80,2013-01-08 22:33:00
4:45 PM,59.0,55.4,88,29.99,2.5,East,8.1,-,0.18,Rain,Light Rain,80,2013-01-08 22:45:00
4:53 PM,59.0,55.9,90,29.99,7.0,East,6.9,-,0.18,Rain,Light Rain,80,2013-01-08 22:53:00
5:53 PM,57.9,55.9,93,29.96,4.0,NE,9.2,-,0.00,,Overcast,40,2013-01-08 23:53:00
6:53 PM,59.0,55.9,90,29.99,2.5,ENE,8.1,-,N/A,,Overcast,60,2013-01-09 00:53:00
7:07 PM,59.0,55.4,88,29.99,3.0,ENE,8.1,-,N/A,,Overcast,70,2013-01-09 01:07:00
7:17 PM,59.0,57.2,94,29.99,4.0,ENE,9.2,-,N/A,,Overcast,60,2013-01-09 01:17:00
7:53 PM,60.1,57.0,90,30.00,8.0,ENE,10.4,-,N/A,,Overcast,70,2013-01-09 01:53:00
8:27 PM,60.8,57.2,88,30.01,5.0,ENE,10.4,-,0.00,Rain,Light Rain,70,2013-01-09 02:27:00
8:53 PM,59.0,57.0,93,30.02,4.0,East,10.4,-,0.01,,Overcast,80,2013-01-09 02:53:00
9:01 PM,59.0,57.2,94,30.03,4.0,East,10.4,-,N/A,,Overcast,80,2013-01-09 03:01:00
9:53 PM,60.1,57.0,90,29.99,6.0,East,11.5,-,0.00,,Overcast,80,2013-01-09 03:53:00
10:35 PM,60.8,57.2,88,30.00,2.5,East,8.1,-,N/A,,Overcast,90,2013-01-09 04:35:00
10:53 PM,60.1,57.9,93,29.99,1.8,East,6.9,-,N/A,,Overcast,90,2013-01-09 04:53:00
11:14 PM,60.8,57.2,88,30.00,2.5,East,6.9,-,N/A,,Overcast,100,2013-01-09 05:14:00
11:21 PM,60.8,57.2,88,30.00,4.0,East,8.1,-,N/A,,Overcast,100,2013-01-09 05:21:00
11:53 PM,61.0,59.0,93,30.00,7.0,East,6.9,-,N/A,,Overcast,90,2013-01-09 05:53:00